FW9613 Weather Reports


time (UTC)temp
C
wind
direction
speed
KPH
gust
KPH
rain 1hr
cm
rain 24hr
cm
rain mn
cm
humidity
%
barometer
mb
20260505100053 17 344 12.9 35.4 0.00 0.00 0.00 74 1006.7
20260505094553 17 270 9.7 22.5 0.00 0.00 0.00 73 1006.6
20260505093057 18 250 8.0 16.1 0.00 0.00 0.00 72 1005.5
20260505091556 18 285 4.8 9.7 0.00 0.00 0.00 71 1004.6
20260505090055 18 200 4.8 20.9 0.00 0.00 0.00 71 1004.2
20260505084553 18 138 8.0 14.5 0.00 0.00 0.00 71 1004.2
20260505083054 17 129 8.0 19.3 0.00 0.00 0.00 72 1004.7
20260505081554 17 154 1.6 11.3 0.00 0.00 0.00 72 1004.8
20260505080054 17 182 4.8 11.3 0.00 0.00 0.00 72 1004.9
20260505074600 18 146 4.8 11.3 0.00 0.00 0.00 71 1005.0
20260505073103 18 151 3.2 8.0 0.00 0.00 0.00 70 1005.3
20260505071553 18 142 1.6 4.8 0.00 0.00 0.00 71 1005.8
20260505070056 17 162 0.0 6.4 0.00 0.00 0.00 71 1006.2
20260505064554 17 184 1.6 8.0 0.00 0.00 0.00 71 1006.2
20260505063053 17 195 3.2 11.3 0.00 0.00 0.00 71 1005.7
20260505061557 17 200 8.0 17.7 0.00 0.00 0.00 71 1005.1
20260505060054 17 178 8.0 14.5 0.00 0.00 0.00 71 1004.6
20260505054625 18 171 8.0 16.1 0.00 0.00 0.00 70 1005.2
20260505053108 18 146 3.2 11.3 0.00 0.00 0.00 69 1005.0
20260505051553 18 153 4.8 16.1 0.00 0.00 0.00 68 1005.4
20260505050105 18 155 4.8 11.3 0.00 0.00 0.00 67 1005.6
20260505041556 20 139 8.0 19.3 0.00 0.00 0.00 63 1006.0
20260505040056 20 190 6.4 19.3 0.00 0.00 0.00 62 1006.0
20260505034558 20 195 11.3 25.7 0.00 0.00 0.00 61 1006.1
20260505033057 21 190 9.7 22.5 0.00 0.00 0.00 60 1006.1
20260505031607 21 192 6.4 16.1 0.00 0.00 0.00 59 1006.1
20260505030056 21 141 3.2 17.7 0.00 0.00 0.00 58 1006.2
20260505024559 21 198 8.0 19.3 0.00 0.00 0.00 56 1006.0
20260505023116 21 163 9.7 20.9 0.00 0.00 0.00 56 1005.7
20260505021557 22 225 9.7 17.7 0.00 0.00 0.00 55 1005.4
20260505020054 22 152 11.3 24.1 0.00 0.00 0.00 53 1005.1
20260505014601 22 177 9.7 14.5 0.00 0.00 0.00 52 1004.8
20260505013108 22 182 11.3 17.7 0.00 0.00 0.00 51 1004.6
20260505011554 23 197 11.3 25.7 0.00 0.00 0.00 50 1004.5
20260505010100 23 193 12.9 22.5 0.00 0.00 0.00 50 1004.3
20260505004556 23 189 12.9 27.4 0.00 0.00 0.00 50 1004.0
20260505003051 24 175 9.7 19.3 0.00 0.00 0.00 50 1004.2
20260505001556 25 184 14.5 24.1 0.00 0.00 0.00 48 1004.2
20260505000113 25 210 11.3 22.5 0.00 0.00 0.00 48 1004.2
20260504234552 25 210 14.5 27.4 0.00 0.00 0.00 47 1004.2
20260504233057 26 200 12.9 22.5 0.00 0.00 0.00 46 1004.2
20260504231554 26 203 16.1 29.0 0.00 0.00 0.00 45 1004.3
20260504230106 26 210 16.1 37.0 0.00 0.00 0.00 44 1004.5
20260504224552 26 201 17.7 33.8 0.00 0.00 0.00 44 1004.6
20260504223053 26 200 19.3 30.6 0.00 0.00 0.00 44 1004.5
20260504221601 26 209 19.3 37.0 0.00 0.00 0.00 44 1004.6
20260504220058 26 223 20.9 37.0 0.00 0.00 0.00 43 1004.6
20260504214548 26 217 24.1 40.2 0.00 0.00 0.00 43 1004.8
20260504213053 26 215 22.5 45.1 0.00 0.00 0.00 42 1004.8
20260504211553 27 212 17.7 49.9 0.00 0.00 0.00 41 1004.9
20260504210054 27 220 17.7 35.4 0.00 0.00 0.00 43 1005.0
20260504204555 26 239 19.3 40.2 0.00 0.00 0.00 42 1005.0
20260504203109 27 211 20.9 43.5 0.00 0.00 0.00 41 1005.3
20260504201559 27 176 20.9 35.4 0.00 0.00 0.00 43 1005.3
20260504200053 26 209 24.1 43.5 0.00 0.00 0.00 44 1005.5
20260504194552 27 217 20.9 38.6 0.00 0.00 0.00 44 1005.6
20260504193049 27 209 14.5 35.4 0.00 0.00 0.00 43 1005.9
20260504191605 26 206 16.1 35.4 0.00 0.00 0.00 44 1006.1
20260504190107 27 216 17.7 37.0 0.00 0.00 0.00 42 1006.2
20260504184550 26 211 19.3 30.6 0.00 0.00 0.00 44 1006.3
20260504183050 25 192 19.3 40.2 0.00 0.00 0.00 46 1006.3
20260504181558 25 209 19.3 35.4 0.00 0.00 0.00 44 1006.5
20260504180057 25 194 20.9 46.7 0.00 0.00 0.00 44 1006.4
20260504174557 25 217 24.1 38.6 0.00 0.00 0.00 44 1006.3
20260504173055 25 211 22.5 49.9 0.00 0.00 0.00 43 1006.2
20260504171551 25 211 22.5 40.2 0.00 0.00 0.00 43 1006.3